Theta_e
314 313 313 313 313 313 313 314 314 314 314 314 313 313 313 313 312 312 312 312 312 313 313 314 313 314 314 314 315 315 314 312 312 312 311 316 323 326 323 323 324 329 326 311 312 313 310 311 310 312 310 309 307 306 309 308 309 307 301 298 295 299 298 302 301 302 304 303 305 306 306 305 303 307 310 313 311 310 310 312 318 327 330 330 330 336 340 341
313 313 314 314 314 314 314 314 315 315 315 315 315 315 314 314 313 313 312 312 312 313 313 313 313 313 314 314 314 315 312 311 311 312 312 322 325 323 323 331 326 326 324 309 309 311 310 308 309 310 308 305 309 305 308 304 309 302 301 299 296 300 302 305 305 306 303 303 304 306 307 306 305 307 310 307 309 309 307 310 321 324 328 334 338 339 340 340
313 313 314 314 314 315 315 315 315 315 315 315 315 315 315 315 315 314 314 313 312 313 313 313 313 313 314 314 314 314 313 311 313 311 315 327 327 323 326 326 327 327 311 308 310 311 310 309 309 308 307 304 306 303 306 304 306 305 301 297 298 303 303 305 307 305 306 306 304 305 306 306 307 307 312 309 308 309 306 306 314 320 325 328 333 335 337 337
313 313 313 314 314 314 314 315 315 315 315 316 316 316 315 315 315 315 315 314 313 313 313 313 313 313 313 313 314 314 313 312 308 313 323 326 324 329 328 326 327 325 312 310 312 312 312 311 310 308 305 302 304 306 303 305 304 305 301 298 300 304 303 305 306 306 306 306 305 305 306 305 306 310 311 309 306 307 308 309 309 321 325 328 331 333 335 335
312 313 313 313 313 314 314 314 315 315 315 316 316 316 316 316 316 315 314 314 313 312 312 312 312 313 313 313 313 314 311 308 308 316 320 326 327 326 331 327 328 314 310 311 312 314 312 309 309 307 305 301 303 303 303 306 307 305 302 303 303 304 302 306 307 307 306 306 305 305 303 304 309 308 307 308 306 305 309 310 312 316 325 325 330 332 334 333
312 312 312 313 313 313 314 314 314 314 315 316 316 315 316 316 316 315 314 313 313 313 312 312 312 313 313 313 313 311 310 297 311 315 331 330 326 328 328 330 331 317 310 310 312 313 310 308 307 303 302 301 301 300 303 304 307 299 303 304 304 305 303 306 306 306 305 305 304 303 306 307 306 306 309 310 308 309 321 322 316 320 325 328 331 332 332 333
311 311 311 312 312 313 313 313 314 314 314 314 315 315 316 315 315 314 314 314 313 313 312 312 312 312 313 312 312 311 309 312 318 317 332 330 327 330 330 329 329 311 311 311 312 310 307 305 304 302 301 301 301 301 304 304 305 302 300 303 304 305 304 306 305 306 305 304 304 307 308 305 305 303 310 308 311 314 320 323 323 322 325 329 329 332 332 332
311 311 311 312 312 312 313 313 314 314 313 314 314 315 315 315 315 314 313 313 313 312 312 312 312 312 312 311 311 311 310 311 317 321 329 328 323 322 326 313 310 310 311 311 311 307 306 303 302 303 301 299 301 302 304 303 304 301 300 302 303 305 305 305 305 305 305 305 307 307 304 304 306 306 310 307 311 315 320 321 323 324 327 329 330 330 332 333
311 311 311 312 312 312 312 313 313 313 313 314 314 314 315 315 314 313 313 312 312 311 312 312 312 312 312 310 310 308 308 315 318 323 328 320 315 314 312 309 312 311 311 313 313 309 306 303 304 304 299 300 304 302 303 302 299 302 302 303 303 303 305 305 305 305 305 306 306 305 304 306 307 310 307 311 313 314 319 317 320 321 321 328 328 332 333 333
311 311 311 311 311 312 312 312 313 313 313 313 313 314 314 314 314 313 314 312 312 312 312 312 312 312 311 310 311 306 307 317 316 316 316 314 311 311 311 312 312 312 310 311 311 308 305 305 304 306 305 303 304 302 304 302 300 305 303 303 303 303 303 305 304 305 305 305 307 303 303 305 308 307 306 312 313 314 314 313 316 318 318 321 328 333 334 333
311 311 311 311 311 312 312 312 312 313 313 313 313 313 313 313 313 313 313 313 312 311 311 311 313 312 310 313 308 307 312 315 315 314 314 312 310 309 310 313 312 311 311 310 309 309 308 307 309 308 306 302 304 303 302 303 305 303 303 304 303 303 303 304 305 304 305 304 306 305 303 307 307 306 306 310 313 313 310 314 317 316 317 321 327 328 331 333
311 311 311 311 312 312 312 312 312 313 313 313 313 313 313 313 313 313 312 313 313 312 312 312 312 312 313 312 311 312 313 313 315 314 314 312 310 312 314 315 313 312 311 309 308 309 309 310 310 306 299 307 300 303 302 305 304 303 304 299 301 303 301 303 302 304 305 303 306 306 303 302 304 302 310 312 313 312 311 312 312 315 317 318 322 327 327 330
311 312 312 312 312 312 312 312 312 312 313 313 313 313 313 313 313 313 313 313 313 313 313 312 312 313 313 309 315 317 315 314 316 314 314 315 314 316 317 316 314 313 313 309 307 310 311 311 309 305 307 305 304 299 305 306 304 304 303 300 298 299 299 302 304 304 303 304 306 305 293 298 302 306 309 313 312 311 311 311 311 310 314 317 323 322 324 327
312 312 312 312 312 312 312 312 312 312 313 313 313 313 312 312 312 313 313 313 314 313 313 313 313 313 313 311 311 314 316 318 314 312 314 315 314 313 314 314 315 315 316 312 312 312 310 311 309 307 309 305 302 309 304 304 304 298 301 301 295 295 295 303 303 303 301 305 306 305 295 298 302 306 310 312 312 310 309 309 311 311 310 314 323 323 321 323
312 312 312 312 312 312 312 312 312 313 313 313 313 313 312 311 312 313 313 312 313 313 313 313 313 310 312 316 316 316 334 318 310 311 313 312 312 310 309 312 312 313 313 312 311 311 311 310 308 304 302 307 306 303 300 300 301 301 296 293 297 294 296 302 304 303 299 304 306 303 296 297 302 305 308 309 310 310 309 309 310 312 312 313 320 320 319 319
312 312 312 312 312 312 312 312 312 313 313 313 313 312 311 311 312 312 312 312 313 313 314 311 313 312 311 308 312 326 313 308 309 313 313 313 311 307 310 309 311 311 311 310 312 312 311 309 304 304 304 306 302 299 298 297 298 300 296 295 294 296 296 298 301 304 304 303 304 302 295 299 300 304 307 309 308 309 307 309 310 312 312 312 315 319 318 319
312 312 312 312 312 312 312 312 312 313 313 313 312 311 311 311 312 312 312 312 313 314 312 311 316 318 306 311 314 306 306 311 314 311 312 313 312 311 309 309 307 308 310 310 310 310 309 305 306 305 305 301 302 299 294 293 294 295 298 294 297 296 297 294 301 304 304 303 300 302 299 299 303 305 306 307 307 307 306 308 310 316 312 314 317 319 320 322
312 311 312 311 311 311 311 311 312 313 313 312 310 310 311 313 312 311 311 312 315 315 313 315 313 310 306 313 306 306 310 313 311 311 311 313 313 312 309 307 308 308 307 306 308 304 307 302 305 299 301 301 300 298 293 290 295 295 295 294 295 298 299 297 297 301 303 303 300 301 299 300 302 304 305 306 307 307 306 306 309 314 317 318 321 318 320 319
311 311 311 311 311 310 311 311 312 312 312 311 309 310 310 310 312 315 314 313 310 307 302 306 307 297 296 307 312 311 310 314 313 312 309 310 312 312 311 311 309 306 302 302 302 303 305 303 304 299 296 297 297 298 297 299 299 298 298 297 297 296 297 297 301 304 303 300 299 299 298 299 301 303 305 306 306 306 306 310 310 311 316 319 318 317 319 318
311 311 311 310 310 310 310 310 311 312 311 309 314 313 315 314 313 311 316 315 309 306 305 309 309 309 308 309 309 313 316 314 308 310 311 312 310 309 308 308 307 306 303 299 302 303 305 298 295 296 297 301 303 302 303 302 301 300 300 299 297 297 298 301 301 303 304 301 300 299 300 301 301 303 304 305 306 306 306 307 308 308 311 315 318 318 318 317
311 311 311 310 309 310 310 311 312 311 309 309 312 317 313 307 303 302 307 312 315 314 310 310 310 307 307 310 312 311 307 307 310 308 311 314 311 307 304 305 303 300 301 302 302 307 305 297 297 300 303 304 304 305 305 303 302 300 298 297 297 298 296 300 300 303 304 300 299 301 300 301 301 303 304 306 306 304 304 305 309 308 308 310 315 320 322 321
311 311 311 310 310 310 310 311 311 310 309 310 314 314 316 311 312 314 311 303 309 314 311 310 313 308 311 312 314 313 310 305 304 308 312 311 307 303 304 302 300 298 302 302 302 301 298 295 299 302 306 306 305 305 304 301 300 300 297 297 296 297 300 301 302 303 303 302 298 300 298 299 301 302 304 305 306 306 307 307 308 308 308 308 309 319 320 318
311 311 311 311 310 310 311 311 310 309 311 314 313 315 315 315 317 317 315 308 306 312 309 308 307 308 308 312 313 313 305 303 301 306 309 310 306 303 304 300 299 299 301 302 297 297 294 296 301 303 305 303 302 302 302 301 301 297 297 295 293 298 296 294 300 302 303 301 298 299 298 299 303 305 304 306 305 307 309 308 309 310 308 309 309 311 318 321
311 311 311 311 311 311 310 310 308 311 310 314 314 313 317 317 316 317 312 304 304 309 309 309 308 307 307 306 312 310 305 305 306 304 312 308 303 306 303 302 300 299 298 301 299 297 296 301 305 304 303 302 300 300 299 297 295 299 298 296 296 296 297 297 297 301 304 304 304 299 298 297 300 299 300 304 306 307 306 307 307 309 308 312 319 321 323 321
310 310 311 311 311 311 310 309 310 315 320 318 314 317 318 317 319 317 309 306 306 305 315 309 309 308 309 315 314 306 307 307 308 310 311 308 304 304 302 305 302 298 299 300 300 298 298 304 306 302 300 301 299 297 299 300 295 296 300 299 298 299 298 299 301 299 297 296 301 298 290 291 298 299 299 302 303 303 306 305 305 306 308 308 309 315 316 325
310 310 310 310 310 310 309 306 316 318 315 314 316 317 318 317 320 318 311 302 296 303 308 299 310 303 314 307 310 307 308 303 310 310 310 310 312 305 304 301 302 296 299 300 299 299 299 303 303 300 300 300 299 297 300 301 296 294 296 301 300 299 300 299 299 298 292 290 298 303 290 287 296 297 299 300 301 302 305 305 305 305 306 306 307 309 312 315
310 310 310 310 310 309 310 312 316 312 308 311 317 319 317 317 325 318 307 297 291 302 298 304 303 305 311 309 309 308 295 299 310 310 309 311 306 310 300 300 302 301 303 303 299 295 301 300 300 301 300 298 297 296 300 300 297 293 302 300 300 300 298 299 298 297 295 300 301 300 297 290 289 295 300 301 300 301 302 303 305 305 306 306 307 308 313 312
309 309 309 310 310 308 313 314 310 304 307 315 318 318 316 322 321 321 304 285 286 306 298 301 304 313 309 310 310 302 303 307 302 306 310 311 309 306 303 300 300 299 301 300 290 300 303 300 299 299 299 297 296 298 302 301 298 297 302 301 300 300 300 299 297 296 296 295 291 294 298 290 289 295 300 300 298 299 300 302 303 304 305 306 307 307 308 310
308 308 308 309 310 309 310 310 311 305 309 312 316 317 318 324 317 307 296 284 299 300 313 300 313 308 307 309 305 305 304 307 299 306 310 311 310 306 299 301 301 301 302 301 294 300 301 301 301 300 298 296 299 301 302 302 298 301 303 303 302 302 300 299 296 295 295 293 287 292 296 288 289 295 296 299 298 297 299 302 303 305 306 307 310 311 314 309
308 308 308 308 309 310 309 313 311 313 312 312 314 319 320 315 307 297 288 282 303 293 303 303 302 301 306 302 302 304 302 303 305 306 307 305 306 307 305 308 302 301 299 301 299 300 303 306 306 301 299 300 301 302 302 302 302 304 302 300 300 299 298 298 297 296 293 286 289 294 296 293 286 293 296 295 298 299 301 302 303 305 306 306 309 308 309 309
307 307 307 308 309 317 319 314 317 319 316 318 321 318 313 310 299 290 283 293 301 300 304 301 300 305 301 299 296 302 302 304 302 303 301 304 302 304 303 301 304 299 298 299 298 298 301 302 300 301 303 302 302 300 303 303 303 302 299 297 296 294 296 295 294 295 286 284 292 295 295 295 285 290 297 300 301 302 302 301 302 303 305 306 309 308 308 309
306 306 307 308 312 317 312 310 317 322 323 322 317 312 307 293 299 287 286 306 290 296 296 298 301 301 300 301 299 300 298 301 303 301 299 299 299 297 298 294 298 290 290 292 292 299 296 298 301 301 304 300 299 297 298 300 300 299 296 295 290 287 291 284 289 283 285 284 292 296 295 291 290 294 298 300 301 302 304 303 303 304 305 306 306 307 309 309
305 306 307 309 312 313 316 319 323 324 323 320 314 309 299 290 283 293 293 298 292 299 296 302 300 300 300 299 297 300 302 297 302 301 301 300 298 299 300 299 300 296 288 296 293 293 294 299 300 300 300 302 299 293 293 293 296 296 293 292 288 284 283 280 284 287 288 293 296 294 297 289 294 297 300 299 301 304 304 306 306 306 306 307 306 307 308 311
305 306 309 315 313 316 318 325 325 325 322 319 310 304 296 287 286 299 295 300 296 301 301 300 301 300 300 296 297 299 296 300 300 300 300 298 297 296 297 299 301 299 297 296 290 292 286 289 294 298 294 302 299 297 297 297 296 296 298 295 291 289 285 280 283 280 283 286 292 296 291 287 288 292 301 302 304 305 305 305 307 308 307 310 307 307 309 310
305 310 314 320 319 320 320 319 323 324 321 314 305 297 288 287 293 292 294 296 299 301 299 302 298 298 297 298 299 300 300 295 300 299 298 296 294 296 296 297 300 299 298 290 296 292 291 291 297 302 300 301 298 300 301 298 296 298 298 298 293 289 294 285 288 287 287 286 286 289 288 293 292 301 305 304 303 303 304 304 305 305 306 306 306 306 308 311
309 321 320 318 319 326 327 322 323 325 315 307 299 290 288 293 291 296 293 300 299 297 298 299 298 295 294 295 298 297 302 296 298 297 297 296 297 295 298 299 299 299 296 290 295 290 292 289 298 300 302 300 299 301 300 300 288 295 295 291 294 300 296 290 289 293 290 287 283 291 292 294 299 300 301 302 302 302 302 302 303 303 304 307 305 306 308 310
308 313 316 322 317 316 321 322 319 321 315 305 296 289 296 297 300 298 300 298 299 299 298 291 293 293 292 292 294 296 297 298 297 296 292 298 295 297 297 299 301 299 299 297 295 297 290 290 297 297 296 300 302 301 301 301 300 296 290 295 299 301 299 293 284 287 285 281 284 290 286 288 289 286 299 299 299 300 300 301 302 304 304 304 305 309 309 309
309 310 311 309 310 317 320 322 320 317 310 301 292 295 300 296 302 300 302 300 300 300 295 293 294 297 293 292 292 295 297 293 294 296 293 296 291 300 298 297 301 300 301 302 295 296 297 288 294 298 297 299 302 300 298 300 301 296 294 300 292 287 286 292 288 280 280 280 282 287 290 289 290 290 295 296 297 298 299 301 301 301 302 303 305 307 309 311
310 307 301 306 312 319 319 320 318 311 304 295 294 290 297 298 301 301 302 302 300 298 294 295 292 296 295 292 294 296 297 291 295 293 290 294 290 298 298 299 297 301 301 301 297 297 298 288 291 298 297 299 299 298 289 294 300 300 300 295 298 294 291 286 289 289 288 281 282 284 287 284 292 293 297 297 298 299 299 300 300 301 302 303 305 307 308 310
310 305 302 314 314 319 317 319 312 306 299 291 294 295 300 297 300 302 302 300 297 296 294 294 296 294 296 295 296 294 297 296 295 294 293 295 293 297 297 300 297 300 301 301 298 299 293 298 285 294 299 298 291 295 292 294 291 293 293 292 294 295 297 294 294 289 286 283 282 282 281 288 295 300 298 298 300 301 301 301 302 302 302 303 305 308 309 309
309 304 303 316 315 317 319 312 303 298 296 298 299 297 299 297 300 300 302 303 300 302 297 296 296 294 295 295 295 298 295 295 295 293 294 294 295 291 299 299 300 298 301 299 297 298 292 293 286 291 291 291 293 298 297 297 297 295 294 292 293 290 289 285 283 293 291 286 283 282 280 290 298 302 300 301 303 302 302 301 301 301 302 305 308 309 309 308
302 295 300 316 319 317 311 299 298 301 298 296 295 298 296 304 299 300 301 302 301 298 301 297 298 297 297 296 296 296 295 294 295 294 295 293 296 295 298 302 301 301 297 294 295 302 300 297 293 287 290 291 295 298 300 300 299 298 296 294 296 295 293 289 282 286 290 290 292 289 284 287 299 302 302 302 302 302 302 302 302 303 304 306 307 307 310 311
302 297 314 318 321 315 304 296 298 296 297 298 302 300 302 300 299 300 299 300 298 299 297 296 297 295 298 297 297 296 297 294 295 293 295 295 295 298 300 301 301 299 297 295 296 297 301 294 289 290 294 295 297 298 298 298 298 295 295 296 294 291 293 291 290 291 287 289 286 286 283 289 300 303 306 303 302 301 304 302 302 303 305 306 307 308 308 309
303 305 306 313 319 312 302 291 290 292 297 299 299 298 301 300 299 298 298 299 297 298 296 296 297 299 296 299 298 295 297 290 296 295 294 296 294 301 300 299 299 296 296 297 294 299 290 294 290 285 285 287 290 293 293 296 296 293 292 295 295 295 295 295 294 295 286 288 288 285 280 287 298 305 302 301 302 301 302 303 305 303 306 307 306 308 309 310
304 307 304 306 311 309 297 299 295 293 295 296 297 295 296 298 300 300 299 297 300 299 298 297 299 300 298 299 297 298 299 295 293 297 296 296 295 300 299 299 298 297 301 302 304 301 294 293 291 283 280 279 279 280 283 286 289 293 295 294 295 294 294 292 286 288 283 289 290 286 285 292 298 302 299 300 300 300 303 302 303 306 305 305 306 308 308 308
302 292 301 300 305 304 302 303 299 296 295 296 293 296 297 295 298 300 299 298 300 300 300 299 300 300 298 297 296 295 295 298 295 294 295 294 296 298 299 299 298 300 303 304 301 299 293 294 292 289 286 285 287 290 294 294 292 288 291 293 293 295 295 295 292 287 284 289 288 290 291 292 294 297 297 301 301 299 300 303 303 302 305 308 309 308 308 309
305 296 296 293 301 301 299 300 297 297 293 298 291 296 295 296 297 297 301 296 299 298 298 298 297 295 296 295 294 294 296 295 297 295 294 294 296 297 299 298 298 302 303 298 299 295 292 289 291 291 291 291 292 291 293 293 290 291 290 290 292 293 294 293 288 286 293 289 284 292 294 291 292 295 297 298 298 300 301 302 303 304 306 305 307 310 308 306
295 300 301 302 295 293 294 295 298 297 298 298 295 298 295 295 295 293 297 298 298 300 295 296 296 296 295 295 295 291 293 293 294 291 295 295 295 297 296 297 296 302 299 296 298 294 291 286 291 291 290 291 292 292 293 292 292 292 291 291 290 291 291 290 291 293 293 286 284 292 294 292 293 295 297 299 304 299 300 301 303 305 304 306 308 305 304 305
301 301 301 304 296 298 298 299 299 298 296 297 295 296 294 294 294 296 295 297 298 297 297 289 293 295 296 296 295 292 293 289 289 296 294 294 294 294 293 294 297 299 297 296 296 298 293 287 291 291 290 291 292 292 293 291 291 291 291 291 291 291 292 293 292 293 292 291 292 293 293 292 296 296 297 299 303 302 302 303 307 303 302 304 306 304 303 304
296 297 295 301 301 298 298 298 297 296 293 296 291 294 294 294 294 295 297 296 291 294 298 294 294 295 295 295 295 293 296 296 295 290 297 296 294 295 294 295 294 297 297 295 295 298 292 288 292 292 288 288 291 292 292 291 290 288 289 290 290 291 291 291 291 293 295 293 293 293 291 289 297 300 299 301 302 301 302 300 300 302 302 303 303 303 303 303
300 304 303 298 295 295 296 296 295 294 292 295 292 295 294 294 294 296 296 298 295 293 295 294 295 296 297 296 295 295 297 297 297 297 298 297 292 297 293 294 296 293 295 294 296 295 293 289 293 291 284 285 290 290 290 290 290 289 288 290 290 290 288 291 288 293 291 290 292 292 288 289 295 298 299 300 300 299 299 301 301 300 301 302 302 303 303 303
301 304 306 301 293 295 293 297 296 293 289 294 294 294 293 293 295 296 290 296 296 297 296 295 296 295 294 296 294 295 298 298 298 298 298 298 299 298 298 297 297 294 293 293 296 292 292 291 287 287 284 283 289 290 289 290 288 284 285 290 291 291 291 292 293 294 295 294 289 286 287 294 296 298 297 297 298 299 299 300 301 302 303 302 303 301 303 304
Wind_Speed
12 12 11 10 11 11 10 10 11 10 10 10 10 10 10 10 11 11 10 11 11 10 11 11 11 11 12 13 14 15 14 13 15 12 13 16 2 7 10 6 8 7 4 7 10 12 12 12 13 11 10 9 8 9 10 12 9 7 8 8 10 9 12 9 12 7 7 8 7 11 7 4 9 5 4 4 6 10 12 0 14 21 15 18 16 17 17 17
12 11 11 11 11 11 11 11 11 12 11 11 10 11 11 10 10 10 11 10 10 11 11 11 12 12 13 13 13 13 14 13 15 16 20 5 12 9 8 6 6 6 5 10 12 12 12 11 11 11 10 9 8 10 8 8 9 9 7 8 10 10 10 13 12 3 4 3 9 6 2 1 6 2 3 6 2 7 11 5 16 20 18 19 18 16 14 13
13 12 12 12 12 12 11 11 11 12 11 11 12 11 11 11 11 10 11 11 10 11 11 11 11 12 13 13 13 13 14 14 14 18 19 14 12 11 11 9 7 8 10 13 12 12 11 10 10 10 9 10 8 11 10 9 10 10 9 10 11 11 14 18 6 8 6 10 8 8 5 4 7 6 4 7 7 7 10 7 14 17 18 19 18 16 15 13
13 12 12 12 12 12 12 12 12 12 12 12 12 11 11 11 11 11 10 11 11 11 11 11 12 12 13 14 13 12 11 12 9 2 6 13 13 11 9 9 9 9 12 14 12 11 10 10 10 10 9 10 8 12 10 8 6 7 10 11 12 13 9 7 11 7 6 4 8 7 6 8 12 2 4 6 8 10 7 10 13 20 19 18 17 16 14 14
13 13 13 13 13 13 12 12 12 13 13 13 12 12 11 11 10 11 10 10 10 10 11 11 11 12 13 14 13 11 12 7 5 7 6 8 10 10 9 9 8 10 14 12 12 12 11 11 10 9 9 8 11 11 10 10 9 8 11 13 15 14 12 9 6 4 2 6 6 9 9 11 6 6 10 8 8 4 6 10 9 12 20 17 17 15 14 15
13 13 13 13 13 13 13 13 12 13 13 12 12 12 12 11 11 10 10 10 10 10 10 10 11 12 13 13 12 10 6 2 3 5 8 7 8 9 9 7 7 9 11 13 12 10 10 9 10 9 8 10 11 11 10 12 9 10 10 11 11 13 12 6 6 9 5 6 9 9 8 6 8 10 4 3 7 1 19 29 10 19 20 16 15 15 14 14
13 13 13 13 13 13 13 13 13 12 13 12 12 12 12 11 11 10 10 10 10 10 10 10 10 11 13 15 12 8 7 8 3 6 8 5 6 8 6 7 4 8 11 12 12 10 9 10 11 9 9 11 13 13 12 11 13 12 10 9 13 12 14 7 7 5 3 6 10 7 8 8 8 12 7 9 4 9 18 24 27 22 17 17 15 12 14 13
14 13 13 13 13 13 13 13 13 13 12 12 12 12 11 11 11 10 10 10 10 10 10 10 10 10 12 10 7 7 9 9 7 7 8 8 8 8 5 8 9 9 10 12 11 11 8 12 11 9 10 10 9 12 10 14 15 12 10 12 14 8 7 6 6 4 6 9 5 7 9 11 8 5 5 6 6 7 20 15 16 16 17 15 15 14 12 13
14 13 13 14 14 13 13 13 13 13 13 12 12 12 12 11 11 10 10 9 10 9 8 8 9 10 10 8 7 8 6 4 8 10 10 11 10 10 9 9 11 11 11 11 13 10 9 9 12 10 10 12 11 12 11 8 4 6 12 11 12 12 6 6 8 10 11 6 7 9 10 9 7 3 9 5 6 7 13 11 11 13 15 15 16 14 12 12
14 14 14 14 13 13 13 13 13 13 12 12 12 12 12 11 10 10 10 10 9 9 9 9 9 10 10 7 8 8 6 4 9 10 11 10 10 10 11 10 12 12 12 12 11 11 11 9 11 11 14 14 12 6 10 8 9 3 8 13 14 10 6 9 11 9 8 9 6 10 11 9 4 6 4 3 4 8 11 10 14 16 16 14 13 10 12 13
14 13 14 14 14 13 13 13 13 13 12 12 12 12 12 12 12 11 11 10 9 8 8 7 8 10 8 6 6 5 4 4 7 8 9 10 11 11 11 11 12 12 12 9 10 10 10 10 10 5 6 8 8 10 11 9 10 9 11 9 7 8 10 12 8 7 8 9 7 10 12 3 6 10 5 7 6 10 11 15 15 15 15 15 14 11 10 9
14 14 14 14 14 13 14 13 13 13 13 13 12 12 12 12 11 11 11 10 10 9 8 8 8 5 7 9 9 9 1 2 5 7 8 10 10 11 12 12 11 12 11 6 9 10 8 6 8 9 4 6 10 5 11 10 10 8 4 10 11 12 12 13 13 9 8 9 9 11 11 7 7 11 13 10 9 10 10 11 12 17 16 15 13 9 2 8
14 14 15 14 13 13 13 13 13 13 13 13 13 12 11 11 12 12 11 11 9 9 6 5 6 6 7 8 10 9 3 5 4 8 8 8 8 9 8 8 11 12 11 7 9 7 6 7 7 10 10 7 8 5 8 5 8 6 10 10 10 12 13 14 13 11 10 11 11 9 9 8 9 7 6 10 9 8 9 10 9 6 16 16 16 13 10 10
14 15 14 14 13 13 14 14 13 13 13 13 13 13 12 12 11 11 10 11 10 8 9 8 6 7 6 6 1 4 2 2 6 7 9 9 10 9 6 7 7 7 7 7 9 5 5 4 9 10 9 12 10 12 7 7 5 9 10 9 9 9 10 15 12 13 13 8 10 7 9 6 8 12 9 6 9 9 5 6 9 9 6 12 15 17 14 13
14 15 14 13 13 13 13 13 13 13 13 13 12 12 11 12 12 12 11 11 10 11 9 6 6 5 6 7 3 6 4 3 7 8 9 10 11 7 9 8 8 8 6 6 5 3 4 7 8 9 9 10 10 8 8 8 8 8 8 9 9 11 11 13 10 11 12 11 6 6 9 9 8 10 10 8 6 9 8 9 9 8 10 8 4 16 15 9
14 14 14 13 13 13 13 13 13 13 13 13 13 12 13 13 11 11 11 10 11 8 7 7 8 9 7 10 6 8 6 9 9 9 9 12 10 9 8 9 7 8 4 7 6 1 5 7 9 8 9 8 10 8 8 7 8 9 8 8 10 10 5 14 11 12 12 10 14 12 9 9 8 13 9 5 10 8 9 9 8 15 10 11 8 4 5 14
15 14 13 13 13 13 12 12 12 13 12 11 10 10 11 13 12 12 11 12 8 7 6 5 3 9 6 6 3 10 8 10 9 9 10 11 11 10 8 9 8 7 7 6 7 4 6 8 5 8 7 10 8 8 8 8 7 8 8 8 8 10 9 7 12 11 11 12 12 12 11 8 7 8 8 7 7 6 8 9 8 17 14 12 7 8 6 4
15 14 14 13 13 11 11 12 12 12 10 8 8 11 9 6 4 4 5 7 7 7 10 9 9 7 11 11 11 10 9 7 9 10 10 8 10 3 8 8 6 8 8 8 7 9 6 8 6 7 5 7 7 9 8 8 6 3 7 7 8 12 8 7 9 12 10 12 11 10 11 11 14 11 14 10 7 9 8 8 7 15 18 10 12 12 5 3
16 15 13 12 12 12 11 11 11 10 10 8 10 9 11 11 5 6 6 5 5 3 4 7 7 6 8 12 12 10 10 10 7 8 11 9 7 8 8 8 8 8 8 7 8 10 7 6 7 7 8 8 9 11 9 7 12 8 13 8 8 7 5 8 5 10 7 10 11 10 10 12 11 7 9 5 9 8 8 5 4 7 16 16 12 15 12 10
16 15 13 13 12 10 9 9 10 9 5 7 6 6 4 3 4 3 7 9 10 11 8 5 15 13 4 8 9 7 7 10 9 8 9 8 7 7 10 8 8 9 9 8 9 9 6 8 7 8 8 6 8 6 7 7 10 12 14 5 11 8 6 9 4 9 6 7 11 11 13 11 10 9 10 11 11 10 7 7 6 7 9 16 15 19 19 19
17 14 13 12 11 10 10 8 6 5 4 7 8 6 7 8 7 3 2 10 16 17 19 15 14 18 10 3 8 9 8 10 8 9 11 9 10 7 9 8 9 9 9 12 9 5 5 8 8 12 2 3 6 8 6 7 8 11 10 8 7 6 7 8 9 9 6 2 5 7 13 9 9 12 11 6 6 3 5 10 4 7 8 9 13 19 18 16
16 14 12 11 10 9 8 7 4 5 6 6 6 7 10 8 5 3 6 9 11 17 17 16 13 14 5 9 7 8 8 8 11 11 10 11 10 10 9 10 10 10 9 8 7 3 7 9 10 13 6 2 2 5 5 6 8 9 8 7 7 7 8 7 9 11 9 6 6 9 12 10 13 12 8 4 5 4 5 8 9 8 8 6 8 14 13 14
16 14 13 11 9 8 8 9 6 3 5 5 6 11 9 8 7 8 8 9 12 12 16 15 12 11 10 10 5 4 10 11 11 12 12 10 10 12 8 9 9 11 11 10 8 7 9 10 17 11 7 3 4 5 7 7 7 7 8 7 9 8 8 4 3 2 3 4 5 9 11 8 7 3 6 7 10 9 8 12 12 10 8 8 9 7 18 16
17 15 12 9 9 9 8 3 3 6 8 11 11 13 10 6 6 8 7 6 8 9 12 13 12 10 13 11 9 12 13 10 10 15 12 11 11 9 10 11 11 8 11 11 12 10 11 3 11 10 4 1 4 4 4 5 7 8 10 10 9 10 9 10 5 4 4 4 5 11 10 9 8 7 8 13 12 7 9 14 10 6 7 6 4 2 17 15
17 15 12 10 9 7 7 8 6 8 8 10 12 12 8 3 2 6 7 5 8 10 9 11 9 11 12 6 9 12 11 11 15 11 14 12 12 9 10 8 8 10 11 11 11 12 12 6 7 7 4 6 5 7 7 7 8 9 11 12 13 13 12 9 8 4 5 6 8 9 8 9 8 10 12 12 7 9 12 11 7 8 7 9 7 4 8 17
17 16 13 9 7 7 7 4 4 6 8 9 9 1 1 5 6 5 5 4 6 6 10 10 10 9 9 14 7 11 9 10 9 8 13 11 11 12 4 9 6 10 10 9 13 4 4 3 6 3 4 5 7 7 8 8 8 8 5 6 11 12 12 8 7 4 6 7 6 8 9 7 9 13 14 13 11 13 11 6 8 11 10 10 7 6 5 11
16 16 12 10 7 6 4 2 9 13 10 4 3 3 5 4 5 7 4 4 6 6 9 7 12 2 6 11 11 7 9 9 8 15 10 10 12 6 11 8 8 8 8 6 4 7 10 4 3 4 5 7 8 9 9 11 7 9 4 9 7 9 11 10 8 8 7 7 5 9 8 8 7 8 9 12 14 13 11 10 12 11 11 11 8 8 4 5
15 15 13 9 6 6 4 8 11 10 10 9 8 7 6 6 5 4 3 1 1 8 10 9 3 5 9 12 12 11 5 7 11 12 5 9 10 6 11 14 12 8 11 6 9 7 6 10 5 7 5 7 9 8 9 12 8 6 1 8 11 9 10 11 9 8 9 8 9 8 11 9 8 9 11 6 7 8 9 10 10 10 12 11 11 11 11 12
16 14 11 9 8 10 8 6 6 12 10 11 8 5 5 5 4 3 2 4 2 4 5 8 3 8 8 14 13 14 11 9 10 7 10 9 11 10 9 13 12 12 11 12 9 5 2 13 6 6 8 8 10 12 12 8 7 7 9 4 6 10 10 10 9 9 7 8 9 10 9 8 7 8 9 10 11 9 9 10 9 10 6 2 0 1 2 4
17 14 13 10 6 6 6 5 9 14 11 10 8 8 6 5 5 3 2 5 4 6 9 5 8 11 10 9 11 13 13 7 9 9 9 7 11 13 13 11 13 11 7 3 10 9 9 3 7 5 8 9 10 13 11 7 9 4 2 9 9 11 10 8 8 7 7 9 11 12 13 10 8 8 8 7 7 7 7 6 7 7 1 3 4 6 6 5
17 14 13 3 5 3 3 7 10 14 12 5 7 7 5 5 4 3 5 4 3 6 7 8 11 10 14 14 10 13 13 13 10 7 9 8 10 11 9 10 9 9 6 7 8 12 10 8 9 8 10 9 8 10 6 5 6 6 5 7 7 9 9 8 6 6 7 9 9 12 14 11 11 7 6 6 5 6 6 10 6 8 8 3 3 2 3 3
18 14 8 7 7 8 5 7 10 7 8 8 6 6 4 6 6 7 5 2 6 7 10 9 13 12 14 13 12 12 11 13 9 11 10 8 9 8 9 10 6 7 8 8 9 7 10 10 11 11 9 11 8 8 7 7 8 9 8 8 7 6 2 6 6 8 9 8 6 7 9 9 11 8 6 2 9 8 2 4 9 9 9 8 6 4 4 1
21 12 13 11 10 8 9 11 9 7 5 5 5 5 6 5 8 8 9 6 4 4 7 9 8 10 12 14 14 12 11 12 12 11 12 12 11 11 11 12 10 9 6 4 7 6 7 11 12 8 9 9 9 8 6 8 8 8 7 8 7 7 6 7 8 5 7 7 8 6 5 8 5 6 10 6 7 8 8 6 9 9 7 7 5 6 5 4
23 17 8 7 9 10 9 9 7 6 5 4 6 6 6 6 8 9 11 6 7 5 10 8 9 11 12 11 12 10 9 11 9 9 11 9 10 6 8 14 14 9 6 5 7 6 6 8 10 9 8 10 8 9 9 6 5 7 7 8 7 6 6 6 6 7 6 7 5 8 5 4 5 3 4 5 6 7 7 5 7 5 8 4 4 2 5 7
28 16 8 7 10 12 14 12 9 8 6 6 6 7 8 9 8 10 10 7 8 6 10 6 11 10 12 14 11 12 11 10 10 11 12 10 10 10 10 9 8 8 7 8 5 3 11 8 3 8 3 6 6 8 9 9 10 5 7 6 6 6 5 9 5 6 6 5 4 6 4 1 2 5 1 6 9 8 7 7 8 7 8 8 3 4 4 7
17 2 5 5 7 10 11 10 10 8 6 6 7 8 10 8 7 7 7 8 8 7 8 8 10 10 9 9 8 12 13 9 11 10 9 11 12 12 10 8 10 12 9 7 1 5 3 8 7 10 5 5 9 6 4 2 6 2 3 6 7 3 6 4 5 8 7 6 8 3 6 9 2 5 6 6 8 8 8 8 9 9 8 6 4 6 6 7
8 8 6 8 12 11 10 10 8 8 6 7 8 9 9 10 12 13 8 11 9 5 8 9 7 9 8 8 7 10 8 10 8 9 9 9 11 13 11 9 5 2 9 6 6 2 6 5 4 9 11 12 12 2 7 3 4 6 6 3 2 6 7 5 7 3 5 7 5 4 6 9 9 5 8 10 9 9 9 9 10 9 9 5 6 4 7 8
8 8 11 13 13 11 9 9 8 7 6 7 9 11 9 13 10 13 12 5 4 5 9 7 4 9 8 9 9 8 8 7 9 10 10 9 6 3 5 6 9 8 5 3 5 3 2 7 8 8 6 9 7 2 8 10 9 10 10 8 6 3 6 6 3 6 6 6 6 6 11 10 8 6 9 12 11 8 10 10 12 11 9 8 8 8 9 9
8 7 9 14 14 7 8 6 6 7 8 9 9 9 10 13 14 15 12 11 6 12 10 9 8 5 8 7 8 9 11 10 8 11 10 8 8 1 5 1 7 7 4 6 5 6 5 5 4 8 12 9 5 8 6 5 9 15 10 10 8 8 6 6 3 6 5 7 5 7 9 6 3 4 8 8 10 8 9 9 11 11 12 8 8 8 8 7
7 6 8 8 9 9 7 6 6 8 9 11 10 10 8 13 13 17 14 8 7 8 9 12 9 10 10 11 10 8 11 13 9 11 10 4 4 4 9 4 4 6 4 3 7 3 5 1 7 6 12 7 8 2 7 6 8 7 11 9 6 5 5 8 6 7 7 6 7 7 7 3 3 6 3 5 8 8 6 6 3 6 7 9 9 7 6 8
7 7 5 6 9 8 7 6 7 10 10 9 12 13 13 13 12 10 9 2 5 9 12 9 8 8 8 9 11 11 8 9 10 10 9 8 7 4 8 8 9 7 6 5 7 4 3 3 7 7 8 8 8 5 11 10 9 9 7 6 6 8 8 8 9 7 9 7 5 6 7 2 3 3 3 2 4 6 8 9 8 8 8 7 9 7 8 8
6 6 5 7 6 10 7 8 8 8 8 11 11 10 11 3 10 11 6 4 8 9 9 12 11 10 7 9 9 9 10 9 9 10 8 9 7 10 7 4 7 4 1 2 4 6 2 3 6 7 8 9 10 13 12 12 8 9 7 8 8 7 1 4 8 6 7 6 9 8 7 2 1 2 1 3 1 4 5 5 5 5 9 9 9 9 7 7
6 8 7 9 9 10 8 8 9 9 10 10 13 16 16 11 9 9 12 13 10 7 10 9 9 9 10 8 6 10 9 9 10 10 9 9 11 13 6 5 5 7 3 4 9 5 4 1 7 9 10 11 12 13 15 13 6 9 10 10 10 11 8 8 8 7 7 7 7 6 6 2 7 6 1 1 1 6 4 9 7 7 10 9 8 9 8 8
8 8 4 7 9 8 8 9 9 10 10 13 15 15 11 11 9 10 13 11 8 7 9 8 5 8 11 8 9 10 6 6 8 12 10 8 7 11 10 9 5 3 5 4 2 4 3 2 7 8 8 8 9 9 12 10 10 7 6 5 8 10 12 11 11 7 9 9 12 9 10 0 3 2 2 1 4 2 7 7 2 7 10 8 8 7 7 7
9 8 9 6 9 8 10 9 10 9 10 12 13 14 12 12 8 10 11 10 9 11 6 6 10 7 7 8 9 9 7 10 7 9 11 10 6 6 9 3 6 6 9 9 10 3 2 4 4 6 7 7 5 5 3 5 6 7 7 6 9 11 11 9 8 7 9 7 10 9 9 2 3 1 4 3 5 5 5 10 9 10 8 9 8 8 8 7
5 4 4 7 9 7 9 10 11 10 7 9 7 8 9 11 9 11 6 12 9 7 8 6 8 7 8 8 8 8 10 10 11 5 8 9 7 6 9 4 4 9 8 11 5 2 3 5 7 8 9 9 9 10 10 10 8 8 7 10 12 7 10 11 7 7 9 7 9 10 11 7 5 6 4 14 10 8 5 3 5 10 11 5 6 8 7 4
6 7 5 6 3 6 7 7 10 10 9 8 7 6 10 11 11 8 6 8 9 9 8 9 9 7 5 9 9 10 9 11 11 11 11 11 10 4 10 3 6 11 10 5 0 1 4 6 9 12 13 15 16 17 16 15 16 14 13 13 14 12 10 11 7 10 8 8 11 7 9 8 8 12 3 5 3 9 7 7 9 7 6 8 5 4 8 10
4 5 4 6 4 4 5 4 9 8 9 7 9 7 9 9 10 9 5 5 13 7 5 6 9 10 11 9 7 7 8 11 10 7 11 11 11 10 6 8 3 10 7 5 6 5 6 6 9 11 14 16 16 16 15 14 14 14 14 15 16 16 14 13 8 10 11 9 12 10 8 10 12 12 11 9 6 6 9 1 5 7 2 8 7 9 10 9
7 6 7 11 7 6 5 7 10 8 7 4 6 8 9 9 9 9 6 3 5 8 8 5 7 8 10 12 10 7 7 7 4 8 8 8 9 1 7 8 6 10 5 5 7 6 5 8 9 11 14 14 15 15 15 15 14 15 17 19 18 16 16 17 16 16 14 14 14 13 10 8 10 12 12 11 6 3 6 4 4 5 5 8 12 11 10 9
9 8 9 10 9 7 5 6 6 5 7 3 0 6 6 5 8 8 6 4 3 7 7 9 11 9 11 13 10 5 9 6 5 4 8 9 2 4 6 7 3 7 5 4 5 4 5 3 3 8 10 12 12 13 14 16 15 18 19 18 17 17 17 17 15 15 12 13 14 12 8 8 6 8 9 11 8 8 9 9 9 8 8 8 7 9 10 11
8 8 7 9 9 6 5 7 5 6 4 7 2 7 4 8 6 3 5 6 3 4 4 9 9 12 11 13 4 11 9 8 7 6 5 3 5 3 4 4 5 8 8 6 5 3 7 5 5 7 8 9 11 13 14 16 18 18 17 16 16 14 10 11 10 10 11 10 10 8 8 7 8 10 9 9 12 13 12 12 11 11 13 10 10 11 11 10
10 10 8 7 7 5 6 3 5 6 4 5 7 5 2 6 8 4 7 6 5 6 6 9 9 8 9 10 11 8 9 8 7 7 8 7 5 6 4 8 7 7 6 7 5 7 4 5 6 6 9 9 11 13 14 14 14 14 9 11 14 15 18 18 17 14 11 10 8 7 8 7 10 11 9 9 11 12 13 12 10 16 9 10 10 11 11 9
Wind_Direction
322 320 320 317 316 315 313 313 311 309 307 303 304 306 302 306 302 304 306 301 300 299 303 304 309 309 308 312 315 318 319 303 299 283 252 241 215 121 87 93 137 143 184 226 228 232 209 218 222 226 232 233 222 239 248 232 244 237 230 242 254 260 252 257 258 265 63 256 25 85 54 308 278 308 315 89 236 264 281 356 71 78 83 95 120 125 130 136
323 321 320 319 314 315 312 310 311 312 309 305 305 302 299 296 299 298 302 302 299 300 302 307 310 307 308 314 317 318 317 294 286 277 256 234 141 136 125 144 179 172 186 224 225 217 218 208 223 213 230 228 221 234 220 235 205 236 237 242 253 246 252 252 259 15 7 15 344 11 263 273 284 334 298 258 243 240 257 154 111 95 98 96 99 112 115 128
321 320 319 318 317 317 314 312 310 309 309 308 305 305 303 301 303 302 297 302 299 300 302 303 306 306 311 313 314 315 299 295 281 260 256 165 157 148 151 164 192 181 202 216 221 226 222 219 211 219 217 246 210 235 203 229 189 219 258 242 236 248 270 276 294 313 332 320 311 335 346 310 294 267 76 251 273 249 236 204 132 121 111 109 112 124 134 135
319 318 318 316 315 313 314 313 312 309 308 308 309 308 306 301 299 299 298 297 298 301 302 303 305 309 308 311 317 312 294 294 273 286 81 128 141 150 161 158 188 205 219 235 234 232 228 246 231 216 230 230 235 240 207 221 206 191 229 245 255 250 277 329 30 1 291 310 312 308 306 303 271 261 329 288 249 245 221 225 192 127 126 120 126 133 142 153
322 321 319 317 315 312 310 313 311 310 309 312 311 310 308 305 302 299 297 291 294 302 303 303 304 307 310 307 311 296 294 265 90 102 120 134 146 153 155 173 185 215 219 235 252 263 244 236 254 230 233 236 244 225 234 222 210 255 223 235 255 278 287 293 260 199 328 31 321 294 283 265 350 274 235 242 259 277 268 224 166 129 134 133 136 140 146 155
318 316 315 314 312 312 311 310 312 308 309 311 310 309 309 308 306 304 301 298 299 298 296 301 305 310 306 311 301 290 277 345 75 97 133 146 150 150 156 180 200 235 218 230 248 245 236 238 239 233 216 245 246 240 201 241 211 234 252 267 281 285 285 290 351 52 44 279 254 251 250 331 271 276 235 272 247 215 59 38 88 127 122 129 138 145 148 154
318 316 315 315 313 312 311 308 308 308 307 307 307 307 308 306 306 306 304 298 293 292 300 303 308 310 311 303 273 264 257 276 343 128 125 164 153 150 153 184 177 222 226 230 230 234 214 231 226 223 227 234 244 247 241 211 230 240 253 244 234 237 246 263 276 258 201 255 261 250 290 277 287 258 119 236 182 94 73 82 83 100 122 131 140 154 149 161
316 315 317 314 311 308 307 307 305 308 307 306 303 305 306 304 304 306 303 301 299 297 298 301 307 310 320 307 281 225 231 257 107 122 138 144 168 163 161 199 197 202 224 232 240 230 200 228 217 223 236 232 227 237 235 238 231 220 234 263 278 324 319 306 297 291 269 255 254 277 264 256 228 270 142 218 145 105 103 103 107 116 126 139 144 154 160 170
317 315 317 313 311 308 305 306 306 305 306 303 304 299 303 303 298 299 301 299 296 297 294 302 307 308 304 288 296 293 276 117 101 127 150 161 161 172 180 181 194 198 214 231 236 233 224 215 236 228 229 222 241 254 244 237 221 231 252 258 257 243 233 242 251 243 246 242 231 252 251 236 240 40 240 111 131 160 135 142 136 143 139 144 152 157 164 173
316 316 315 313 310 308 306 306 305 303 304 301 299 299 297 302 299 294 298 297 296 294 301 302 300 308 287 269 278 271 106 119 120 144 151 154 155 161 196 191 180 205 223 226 223 231 217 216 228 213 249 279 300 281 272 177 253 329 258 236 252 258 240 241 249 232 218 238 226 232 230 230 203 229 97 197 130 214 162 139 141 147 152 151 154 155 173 171
316 315 315 312 310 307 308 308 306 304 301 300 298 298 296 293 294 291 289 291 292 297 297 300 303 303 288 291 282 289 56 207 142 140 156 153 158 173 200 211 184 216 232 216 241 223 231 260 276 286 292 260 245 246 242 242 242 230 261 300 271 273 266 273 247 251 243 217 223 252 251 97 162 240 155 217 184 200 198 148 153 180 157 147 159 169 168 172
315 316 314 312 309 307 309 306 303 303 301 300 298 294 295 292 289 286 285 284 288 291 289 291 290 276 278 274 249 267 298 127 169 158 158 168 176 188 191 215 206 221 231 216 226 226 278 270 330 235 246 64 259 302 225 238 257 278 269 249 250 250 247 228 249 209 229 245 190 236 252 197 191 244 153 181 206 202 186 163 183 176 141 144 166 144 119 190
316 316 315 310 308 309 308 306 303 301 300 298 297 295 292 293 290 289 286 281 276 270 277 283 270 266 287 286 237 221 225 128 168 153 175 190 193 211 220 230 208 227 250 221 214 213 230 268 266 256 258 269 269 259 12 215 236 246 243 252 262 252 230 223 218 227 217 234 172 220 253 199 214 181 150 139 210 201 180 166 176 196 139 160 158 130 185 202
319 315 314 311 308 310 307 304 303 300 299 297 294 293 292 288 287 285 282 276 279 285 280 268 270 263 260 266 178 153 56 250 147 189 184 195 212 201 221 236 230 246 271 290 328 100 254 246 275 272 291 270 255 18 247 227 248 243 236 227 254 256 240 204 186 208 221 179 167 212 258 208 196 134 162 172 207 213 155 203 160 209 135 139 147 151 172 185
322 317 312 311 310 309 306 304 301 300 299 297 295 295 294 288 286 281 274 268 255 261 254 260 243 262 241 250 234 125 26 271 179 192 180 194 215 180 209 188 225 231 228 274 264 223 254 266 258 253 242 237 277 266 243 238 218 230 240 224 223 243 252 169 171 183 218 137 175 225 251 266 192 152 127 203 223 219 210 187 190 122 102 66 139 161 176 167
323 320 314 312 314 307 304 302 301 300 295 295 293 291 289 282 277 268 263 269 284 302 241 238 230 228 298 283 143 119 169 209 194 185 176 203 207 185 176 191 183 218 212 195 289 317 232 242 239 249 263 236 232 247 249 232 214 217 239 238 231 228 231 123 196 175 218 165 192 218 238 234 180 156 150 166 223 205 242 162 225 127 136 161 161 99 70 151
324 319 319 315 311 308 302 302 301 298 295 294 298 290 277 263 261 257 257 254 254 233 224 252 243 193 258 63 138 186 191 214 166 184 183 220 204 168 173 180 197 198 190 224 218 231 217 236 227 251 247 270 225 229 246 236 224 212 207 246 243 253 155 196 153 200 198 225 183 187 243 255 86 116 152 162 234 224 232 231 179 142 155 175 172 105 85 0
327 324 319 315 308 310 308 303 299 299 298 301 288 288 279 290 230 236 227 238 234 234 231 250 274 273 244 256 239 204 195 196 164 183 187 205 255 237 185 196 190 206 187 216 200 231 197 235 218 252 224 227 247 242 239 239 232 320 214 211 232 239 233 210 169 162 227 186 265 178 232 244 140 156 195 165 263 243 223 238 228 149 147 141 86 72 83 72
328 325 319 317 314 309 307 298 298 297 296 298 284 283 267 258 229 231 239 179 190 194 214 196 186 225 354 177 216 195 204 144 197 181 182 213 194 242 202 225 198 200 210 221 178 225 185 237 230 247 237 218 218 229 235 331 347 329 314 229 274 271 217 248 230 136 213 168 226 227 201 236 174 201 190 146 212 256 240 237 272 162 148 141 136 147 160 131
332 325 321 317 315 307 300 301 291 295 329 282 246 221 225 213 190 200 204 217 231 238 285 157 195 214 247 144 193 128 115 135 200 195 184 214 183 221 223 215 233 229 232 232 175 217 204 244 230 225 231 266 244 228 31 316 339 319 314 253 208 231 227 237 77 151 183 242 196 223 237 222 237 202 164 187 182 190 248 226 202 252 165 163 165 161 158 163
333 329 322 319 313 312 299 295 297 275 292 271 277 259 273 6 338 69 163 220 224 242 256 262 201 229 270 146 120 137 174 179 226 178 220 158 225 204 203 215 226 216 228 243 235 117 225 252 251 249 176 67 358 5 350 298 307 326 310 315 308 237 237 205 198 151 150 214 281 271 270 227 230 244 230 181 207 234 226 274 266 229 235 195 192 147 153 162
338 331 326 318 317 309 308 300 311 306 272 268 258 257 273 26 346 347 304 287 249 224 235 246 241 232 201 282 146 203 180 191 202 200 198 176 199 221 157 216 206 230 213 221 245 156 222 239 252 250 114 168 316 4 327 326 311 281 288 299 288 278 268 83 35 125 140 193 254 260 249 230 203 225 265 212 205 198 240 259 255 232 232 244 254 147 155 155
341 335 327 320 316 309 301 303 286 316 267 224 235 247 268 347 345 343 315 282 273 254 224 221 234 240 245 221 217 221 224 204 198 190 182 194 200 226 210 200 218 238 227 212 231 218 239 231 233 234 78 14 309 256 281 299 286 275 263 255 255 269 266 147 146 248 219 147 257 235 265 280 275 235 268 251 209 200 204 237 246 247 239 227 230 181 162 147
345 339 333 325 315 308 300 321 282 251 231 234 254 273 299 336 341 335 324 269 283 253 213 214 224 219 229 208 190 215 228 203 226 180 166 190 223 200 243 244 251 241 256 209 198 251 264 98 87 91 80 345 299 307 280 263 257 235 257 264 256 244 228 257 155 170 317 248 243 288 293 288 260 212 229 252 219 174 210 234 238 245 243 249 263 116 145 156
345 342 330 321 306 298 313 306 256 224 220 228 247 260 269 332 347 350 312 276 236 249 216 216 216 215 214 216 155 219 201 254 243 168 159 193 213 216 215 227 250 250 246 259 226 219 246 357 93 113 133 214 226 260 228 243 250 256 222 237 264 281 309 301 98 159 190 243 217 244 266 253 234 206 230 242 213 194 225 228 217 246 244 248 224 205 174 156
344 341 334 318 304 290 315 273 245 255 240 243 271 260 324 336 34 336 305 272 275 208 155 222 158 213 197 175 168 229 228 242 259 145 155 195 235 236 192 240 221 247 238 269 246 236 177 160 259 263 247 233 245 249 252 210 253 260 286 259 243 265 280 275 260 141 240 234 207 199 244 250 222 226 207 234 211 189 223 237 212 227 237 240 239 214 189 144
342 340 334 317 290 287 248 312 351 316 287 324 100 44 315 360 40 320 255 253 257 143 183 113 177 83 267 156 202 194 215 208 175 131 186 161 237 186 268 242 188 274 287 317 36 217 250 220 118 287 255 252 249 243 232 248 238 255 73 268 256 261 260 263 250 245 261 260 262 188 220 261 280 276 269 220 211 179 196 219 234 222 210 216 227 232 219 206
339 337 329 315 276 237 289 324 311 298 289 14 302 337 324 40 341 263 256 299 248 159 195 145 275 128 224 147 207 201 172 79 192 155 188 146 231 187 232 261 281 233 202 217 244 37 268 116 204 241 235 259 249 235 244 217 231 254 60 292 287 255 247 255 243 233 248 263 256 208 228 237 247 262 269 278 226 189 205 219 220 238 215 193 192 208 208 201
336 332 325 308 262 249 269 278 296 277 286 307 324 316 0 358 302 279 274 282 121 208 37 180 107 185 216 160 208 219 224 155 230 137 194 183 203 246 217 230 258 288 290 186 250 172 230 259 188 224 248 239 238 250 248 255 221 237 273 274 265 279 270 261 257 245 241 244 250 242 204 250 253 241 236 210 216 199 221 210 193 231 280 250 66 212 307 7
331 332 323 304 254 239 232 233 243 253 274 284 316 331 319 267 261 247 203 249 171 215 183 90 206 181 213 183 200 211 238 172 243 135 184 194 187 226 268 310 284 256 232 208 251 261 231 146 327 291 226 234 243 238 230 196 227 168 264 266 260 253 251 246 248 262 259 242 246 253 260 239 250 246 249 243 185 174 207 232 202 163 213 273 43 19 7 307
327 326 327 241 242 270 255 230 227 235 241 300 357 318 286 252 258 240 233 256 175 215 158 153 199 181 193 210 202 194 222 219 164 173 188 204 200 210 235 230 254 294 286 258 235 256 251 165 203 231 263 276 283 290 296 282 262 295 243 242 260 247 242 255 259 256 254 256 250 238 242 239 250 238 249 251 139 162 235 227 169 144 166 110 71 217 192 21
325 317 308 220 265 328 273 278 355 327 2 355 323 287 262 250 231 236 245 32 320 166 200 184 224 184 198 208 224 181 206 224 199 183 220 183 207 191 200 252 163 235 233 223 230 219 250 221 186 208 198 249 238 255 261 233 236 236 243 269 253 256 265 264 241 233 235 250 265 325 280 254 236 265 280 22 117 156 210 147 146 156 168 126 128 70 70 104
319 307 295 242 252 254 255 267 304 333 329 310 284 256 249 263 249 229 234 227 187 208 195 249 221 189 195 202 224 197 202 235 193 211 220 191 238 179 210 231 174 226 268 228 270 198 235 279 276 219 180 190 257 248 216 217 196 224 236 227 242 256 234 248 244 251 260 254 268 238 318 288 288 225 248 193 175 177 169 147 151 159 114 134 142 156 141 112
312 310 290 210 210 232 259 285 289 306 316 279 260 247 242 241 247 264 275 226 235 162 274 243 200 214 209 217 210 192 205 245 223 212 202 208 214 202 223 228 222 204 188 241 227 235 250 222 224 223 203 158 205 237 268 294 186 235 255 247 245 245 246 248 246 258 250 273 289 266 194 241 232 217 218 147 137 125 150 139 126 123 115 141 177 118 92 80
309 298 234 245 227 240 241 250 262 261 262 258 244 241 233 237 256 261 256 259 246 242 259 224 252 205 217 228 214 196 223 189 207 224 214 229 209 225 200 239 221 249 220 248 195 219 243 261 212 210 84 123 246 225 242 284 306 200 201 263 274 236 212 259 281 273 308 303 261 221 246 264 208 37 121 141 136 171 151 185 141 144 171 168 156 119 81 92
299 237 169 229 232 230 215 220 227 230 239 250 248 235 234 238 245 227 244 299 261 220 245 243 246 245 236 235 212 234 192 269 167 238 236 211 235 220 210 200 230 192 233 232 166 264 233 250 181 190 169 169 231 254 253 285 258 55 287 238 240 255 255 275 268 269 257 247 254 267 220 220 184 179 235 158 175 191 175 161 159 174 153 124 135 120 107 90
315 302 226 238 237 229 216 206 203 203 231 254 248 243 245 246 250 265 275 268 311 299 243 250 213 252 229 232 244 227 165 192 226 207 246 227 231 239 199 174 216 164 252 322 316 276 286 295 139 186 191 194 239 301 295 241 239 276 247 221 335 266 257 243 264 266 248 265 270 228 232 257 245 217 171 199 210 202 190 164 174 161 118 144 105 111 100 98
304 284 289 272 259 226 191 196 214 213 239 249 245 260 268 270 265 271 284 288 296 259 285 262 257 216 245 233 220 236 226 217 215 215 249 197 271 196 217 176 153 242 307 11 262 70 349 285 280 300 272 256 178 213 247 257 263 271 274 321 277 232 234 231 252 254 258 240 260 256 263 248 246 259 171 193 206 200 190 177 193 155 158 160 127 121 120 115
266 279 267 253 246 165 171 189 207 227 235 240 248 244 242 254 267 271 287 325 347 300 267 238 250 196 269 260 243 223 238 223 234 239 231 192 227 55 287 73 153 224 253 278 264 279 242 265 268 263 277 294 246 171 228 269 222 220 247 262 277 299 272 278 242 295 271 277 261 255 266 267 213 294 161 175 196 198 204 189 213 158 190 145 134 132 127 121
260 261 251 236 182 148 165 174 220 226 230 240 238 246 259 258 248 247 241 197 259 252 245 287 261 254 213 242 245 235 217 239 222 249 243 183 173 149 260 169 263 171 214 266 290 284 278 322 281 276 284 268 251 205 263 246 262 241 205 227 246 245 271 270 254 238 246 262 275 292 277 290 9 315 99 185 196 207 203 210 221 189 160 139 143 131 128 125
301 277 286 127 148 152 146 195 223 222 231 239 244 258 256 261 266 277 300 273 286 273 287 274 282 276 264 227 236 233 254 225 225 241 238 230 223 183 211 213 200 210 151 243 250 254 266 247 259 278 267 256 254 219 261 294 322 307 301 277 252 249 248 246 253 249 259 273 272 276 275 267 211 201 120 196 165 226 188 201 200 188 145 133 119 132 131 122
271 244 216 155 139 171 181 216 219 230 239 236 241 232 239 31 286 277 277 222 229 266 249 265 268 285 291 268 258 244 247 240 234 250 241 254 198 245 124 192 141 265 306 214 252 77 12 345 289 261 250 258 279 286 281 276 239 268 285 271 276 287 326 257 270 264 294 294 300 278 296 46 187 37 43 357 57 167 162 207 198 172 140 127 129 137 129 126
257 256 95 153 153 195 199 239 233 227 234 246 251 247 252 247 266 271 265 247 239 216 265 254 246 251 248 263 255 263 241 248 251 237 245 238 64 85 120 121 114 128 242 303 299 4 99 265 257 257 276 281 272 265 274 277 251 254 256 264 270 269 282 282 276 295 279 268 263 275 251 360 332 4 54 9 214 288 178 196 195 181 121 121 142 128 140 139
290 284 207 174 173 205 226 230 237 232 237 245 245 262 260 265 252 251 252 261 268 256 236 253 269 254 283 255 246 247 240 270 225 262 258 239 120 103 118 111 235 119 183 14 37 48 277 190 233 279 285 281 271 242 230 240 258 235 233 268 281 279 268 260 272 285 280 266 269 274 274 197 246 22 287 190 279 192 160 162 186 141 124 151 154 146 140 137
299 278 268 196 185 201 228 227 240 249 247 247 246 238 255 248 237 264 286 285 268 262 273 289 297 316 282 280 268 274 255 248 270 244 259 251 112 178 89 107 112 284 65 63 41 25 260 281 269 256 264 268 262 246 286 3 342 325 302 326 310 299 302 302 265 246 257 274 280 268 272 317 89 95 237 277 275 272 172 177 163 132 158 166 175 150 146 149
288 297 235 216 176 196 234 257 268 268 279 305 314 295 264 267 251 234 266 275 274 276 283 297 267 277 281 283 284 273 263 257 252 260 250 244 139 186 153 184 113 72 57 56 46 294 293 283 271 277 271 272 284 303 319 328 314 287 275 266 262 268 305 308 300 276 264 290 276 267 272 283 209 178 54 355 330 285 266 289 225 172 161 166 136 158 145 131
287 281 340 332 267 244 260 238 237 242 255 253 268 252 244 251 259 249 180 263 249 249 268 248 263 254 251 269 275 270 269 274 268 250 247 259 221 234 116 157 145 99 73 63 300 278 271 267 259 266 267 269 279 286 295 296 286 277 279 276 276 272 272 271 276 284 310 299 275 286 307 309 334 334 40 110 38 309 336 348 319 107 170 128 161 157 204 180
314 356 345 29 304 299 301 326 313 277 288 263 240 262 278 260 245 244 168 253 303 278 269 271 246 253 268 257 255 259 274 275 274 282 269 245 269 119 182 133 254 118 143 231 192 222 243 250 249 253 260 266 271 278 284 289 288 298 303 305 303 308 307 296 273 267 268 258 270 287 310 302 302 298 307 320 71 359 308 284 243 271 175 153 174 212 203 186
355 347 341 8 320 307 308 333 312 330 309 301 320 298 268 268 278 268 259 270 290 283 242 254 265 278 269 260 246 252 258 268 281 289 293 277 267 222 229 163 162 137 161 249 254 184 217 247 268 268 272 268 265 266 268 264 263 264 260 253 247 248 253 251 252 252 262 272 275 281 279 273 293 301 300 301 303 209 224 309 307 243 208 208 206 200 211 205
7 348 347 332 326 291 350 313 302 323 290 88 346 263 303 280 268 282 264 240 234 297 315 293 291 275 274 265 262 278 40 17 351 337 358 346 285 261 296 288 269 217 215 232 227 194 196 241 264 276 266 271 281 283 279 278 282 284 285 294 297 298 303 310 305 300 283 267 271 280 300 296 313 314 323 321 310 281 267 251 247 270 262 273 249 226 246 256
345 337 334 323 328 338 330 285 274 278 292 342 316 350 292 296 298 290 272 255 299 318 322 301 320 325 316 310 350 17 41 10 9 11 338 335 297 345 314 326 318 307 278 243 230 150 145 267 288 290 288 277 274 274 277 281 278 277 284 290 293 284 263 262 276 286 288 286 282 293 291 296 315 306 313 340 349 342 332 344 325 277 253 243 247 246 231 242
346 345 334 330 313 295 290 10 0 311 27 7 359 317 355 19 327 9 35 16 339 325 11 349 339 333 312 13 29 9 352 339 349 351 330 339 313 291 259 261 267 270 252 261 264 271 248 258 264 264 267 269 273 282 286 290 283 270 259 263 267 270 268 265 262 265 267 283 289 282 273 322 4 3 348 358 350 346 350 348 345 343 357 15 339 275 245 227